This is the latest recevied weather packets stored in our database for station/object F4IEI-10. If no packets are shown the sender has not sent any weather packets the latest 10 day(s).
| Time | Temp. | Humidity | Pressure | Rain* | Wind** | Luminosity | Snow |
|---|---|---|---|---|---|---|---|
| 1777329799 | 8.33° C | 72% | 1019.7 hPa | - | - | - | - |
| 1777328904 | 8.33° C | 83% | 1019.7 hPa | - | - | - | - |
| 1777328003 | 8.89° C | 75% | 1019.8 hPa | - | - | - | - |
| 1777327103 | 9.44° C | 74% | 1019.9 hPa | - | - | - | - |
| 1777326203 | 10° C | 65% | 1019.9 hPa | - | - | - | - |
| 1777325302 | 11.11° C | 69% | 1019.9 hPa | - | - | - | - |
| 1777323503 | 11.67° C | 71% | 1020 hPa | - | - | - | - |
| 1777322602 | 12.78° C | 61% | 1019.9 hPa | - | - | - | - |
| 1777321710 | 12.78° C | 62% | 1019.9 hPa | - | - | - | - |
| 1777320809 | 12.78° C | 57% | 1019.9 hPa | - | - | - | - |
| 1777319903 | 12.22° C | 60% | 1019.9 hPa | - | - | - | - |
| 1777319003 | 12.78° C | 70% | 1019.6 hPa | - | - | - | - |
| 1777318103 | 12.78° C | 60% | 1019.6 hPa | - | - | - | - |
| 1777317203 | 13.89° C | 52% | 1019.5 hPa | - | - | - | - |
| 1777316303 | 14.44° C | 59% | 1019.6 hPa | - | - | - | - |
| 1777314502 | 15° C | 51% | 1019.6 hPa | - | - | - | - |
| 1777313603 | 15.56° C | 50% | 1019.5 hPa | - | - | - | - |
| 1777312703 | 17.22° C | 49% | 1019.6 hPa | - | - | - | - |
| 1777311802 | 17.78° C | 48% | 1019.7 hPa | - | - | - | - |
| 1777310910 | 18.89° C | 46% | 1019.6 hPa | - | - | - | - |
| 1777310003 | 19.44° C | 45% | 1019.6 hPa | - | - | - | - |
| 1777309103 | 18.89° C | 48% | 1019.8 hPa | - | - | - | - |
| 1777308202 | 19.44° C | 46% | 1019.7 hPa | - | - | - | - |
| 1777307303 | 20° C | 45% | 1019.7 hPa | - | - | - | - |
| 1777306402 | 20.56° C | 43% | 1019.8 hPa | - | - | - | - |
* Rain since midnight (hover to see other rain measurements)
** Current wind speed in m/s (hover to see current wind gust speed)